FW6293 Weather Reports


time (UTC)temp
C
wind
direction
speed
KPH
gust
KPH
rain 1hr
cm
rain 24hr
cm
rain mn
cm
humidity
%
barometer
mb
20260507040018 12 28 1.6 8.0 0.03 0.58 0.58 81 1021.0
20260507034520 12 5 4.8 17.7 0.00 0.56 0.56 81 1021.0
20260507033014 13 13 3.2 11.3 0.00 0.56 0.56 82 1021.0
20260507031513 13 343 0.0 8.0 0.00 0.56 0.56 83 1021.0
20260507030012 13 20 1.6 9.7 0.00 0.56 0.56 84 1021.0
20260507024510 13 355 3.2 9.7 0.00 0.56 0.56 85 1021.0
20260507023007 14 65 1.6 8.0 0.00 0.56 0.56 85 1021.0
20260507021505 14 360 3.2 8.0 0.00 0.56 0.56 85 1021.0
20260507020009 15 16 3.2 12.9 0.00 0.56 0.56 86 1021.0
20260507014505 15 313 3.2 9.7 0.00 0.56 0.56 85 1021.0
20260507013001 15 315 1.6 6.4 0.00 0.56 0.56 86 1021.0
20260507011600 15 297 3.2 11.3 0.00 0.56 0.56 85 1021.0
20260507010058 15 300 4.8 14.5 0.00 0.56 0.56 85 1021.0
20260507004556 16 296 6.4 12.9 0.00 0.56 0.56 87 1021.0
20260507003101 16 313 3.2 12.9 0.03 0.56 0.56 89 1021.0
20260507001602 16 322 3.2 8.0 0.05 0.56 0.56 91 1021.0
20260507000056 17 297 1.6 8.0 0.05 0.56 0.56 90 1021.0
20260506234604 17 295 6.4 16.1 0.05 0.56 0.56 90 1021.0
20260506233057 17 308 8.0 12.9 0.03 0.53 0.53 89 1021.0
20260506231556 17 302 8.0 17.7 0.00 0.51 0.51 87 1021.0
20260506224554 18 286 4.8 8.0 0.00 0.51 0.51 86 1021.0
20260506223053 18 298 8.0 14.5 0.00 0.51 0.51 85 1021.0
20260506221551 18 299 8.0 14.5 0.00 0.51 0.51 83 1021.0
20260506220053 18 311 11.3 20.9 0.00 0.51 0.51 83 1021.0
20260506214550 18 290 6.4 16.1 0.00 0.51 0.51 83 1021.0
20260506213049 19 298 12.9 25.7 0.00 0.51 0.51 82 1021.0
20260506211550 19 300 14.5 22.5 0.00 0.51 0.51 82 1021.0
20260506210048 20 299 12.9 22.5 0.00 0.51 0.51 83 1021.0
20260506204545 20 260 12.9 20.9 0.00 0.51 0.51 84 1021.0
20260506203043 18 296 14.5 20.9 0.00 0.51 0.51 83 1021.0
20260506201542 18 301 12.9 22.5 0.00 0.51 0.51 83 1021.0
20260506200042 18 300 9.7 22.5 0.00 0.51 0.51 84 1021.0
20260506194539 18 306 12.9 17.7 0.00 0.51 0.51 85 1021.0
20260506193042 18 290 9.7 16.1 0.00 0.51 0.51 85 1021.0
20260506191537 17 282 6.4 16.1 0.00 0.51 0.51 86 1021.0
20260506190040 17 275 6.4 17.7 0.00 0.51 0.51 86 1021.0
20260506184544 17 298 9.7 22.5 0.00 0.51 0.51 88 1021.0
20260506183034 16 271 4.8 14.5 0.00 0.51 0.51 89 1021.0
20260506181534 16 293 6.4 14.5 0.00 0.51 0.51 89 1021.0
20260506180034 16 305 4.8 19.3 0.00 0.51 0.51 90 1021.0
20260506174533 16 283 9.7 19.3 0.00 0.51 0.51 89 1021.0
20260506173043 16 296 6.4 12.9 0.00 0.51 0.51 90 1021.0
20260506171531 16 288 8.0 17.7 0.00 0.51 0.51 90 1021.0
20260506170034 16 279 6.4 16.1 0.00 0.51 0.51 90 1021.0
20260506164530 16 304 6.4 20.9 0.05 0.51 0.51 91 1021.0
20260506163031 16 304 9.7 20.9 0.05 0.51 0.51 91 1021.0
20260506161527 16 274 4.8 16.1 0.10 0.51 0.51 91 1021.0
20260506160026 16 333 6.4 17.7 0.18 0.51 0.51 92 1021.0
20260506154624 16 214 1.6 12.9 0.15 0.46 0.46 92 1021.0
20260506153022 16 312 1.6 11.3 0.18 0.43 0.43 92 1021.0
20260506151525 16 282 3.2 11.3 0.15 0.41 0.41 91 1021.0
20260506150020 16 292 6.4 16.1 0.18 0.33 0.33 90 1021.0
20260506144519 16 310 1.6 12.9 0.20 0.30 0.30 90 1021.0
20260506143024 16 306 3.2 11.3 0.18 0.25 0.25 90 1021.0
20260506141517 16 287 1.6 8.0 0.20 0.25 0.25 89 1021.0
20260506140016 16 298 1.6 4.8 0.10 0.15 0.15 88 1021.0
20260506134514 16 228 0.0 1.6 0.08 0.10 0.10 87 1021.0
20260506133013 16 223 0.0 3.2 0.05 0.08 0.08 87 1021.0
20260506131513 16 224 0.0 8.0 0.05 0.05 0.05 86 1021.0
20260506130011 16 294 1.6 6.4 0.05 0.05 0.05 85 1021.0
20260506124510 16 293 1.6 6.4 0.03 0.03 0.03 84 1021.0
20260506123010 16 290 3.2 9.7 0.03 0.03 0.03 83 1021.0
20260506121510 17 250 1.6 11.3 0.00 0.00 0.00 82 1021.0
20260506120011 17 297 1.6 9.7 0.00 0.00 0.00 82 1021.0
20260506114506 17 311 1.6 8.0 0.00 0.00 0.00 80 1021.0
20260506113006 17 229 1.6 8.0 0.00 0.00 0.00 79 1021.0
20260506111504 17 290 3.2 8.0 0.00 0.00 0.00 77 1021.0
20260506110003 17 219 1.6 9.7 0.00 0.00 0.00 76 1021.0
20260506104504 17 318 3.2 8.0 0.00 0.00 0.00 76 1021.0
20260506103002 17 275 3.2 12.9 0.00 0.00 0.00 75 1021.0
20260506101501 17 289 3.2 16.1 0.00 0.00 0.00 75 1021.0
20260506100120 17 267 4.8 11.3 0.00 0.00 0.00 75 1021.0
20260506094601 17 240 1.6 6.4 0.00 0.00 0.00 75 1021.0
20260506093059 17 295 4.8 11.3 0.00 0.00 0.00 74 1021.0
20260506091659 17 286 3.2 11.3 0.00 0.00 0.00 74 1021.0
20260506090058 17 288 1.6 14.5 0.00 0.00 0.00 74 1021.0
20260506084622 17 284 1.6 16.1 0.00 0.00 0.00 73 1021.0
20260506083057 17 246 1.6 4.8 0.00 0.00 0.00 73 1021.0
20260506081600 17 219 0.0 6.4 0.00 0.00 0.00 72 1021.0
20260506073053 18 250 0.0 4.8 0.00 0.00 0.00 69 1021.0
20260506071553 18 300 1.6 8.0 0.00 0.00 0.00 69 1021.0
20260506061549 17 299 0.0 0.0 0.00 0.00 0.00 69 1021.0
20260506044634 17 226 1.6 9.7 0.00 0.00 0.00 65 1021.0
20260506043039 17 315 0.0 0.0 0.00 0.00 0.00 66 1021.0
20260506041537 17 317 0.0 0.0 0.00 0.00 0.00 65 1021.0